EW1458 Weather Reports


Display with metric or nautical units.
time (UTC)temp
F
wind
direction
speed
MPH
gust
MPH
rain 1hr
in
rain 24hr
in
rain mn
in
humidity
%
barometer
mb
20260903192700 65 24 1.0 12.0 0.00 0.15 0.15 86 1016.0
20260903192159 65 193 2.0 11.0 0.00 0.15 0.15 86 1016.2
20260903192056 65 189 1.0 9.0 0.00 0.15 0.15 87 1016.3
20260903191153 64 35 1.0 9.0 0.00 0.15 0.15 87 1016.6
20260903190651 64 38 7.0 9.0 0.00 0.15 0.15 87 1016.7
20260903190150 64 72 4.0 9.0 0.01 0.15 0.15 88 1016.5
20260903185638 64 352 0.0 11.0 0.01 0.15 0.15 89 1016.5
20260903185142 64 102 2.0 16.0 0.01 0.15 0.15 89 1016.7
20260903185057 64 89 9.0 16.0 0.01 0.15 0.15 89 1016.8
20260903184141 64 69 5.0 15.0 0.02 0.15 0.15 90 1016.7
20260903183636 64 108 10.0 13.0 0.02 0.15 0.15 90 1016.9
20260903183132 64 110 6.0 15.0 0.02 0.15 0.15 90 1016.8
20260903182627 64 119 3.0 15.0 0.02 0.15 0.15 90 1017.1
20260903182551 64 149 2.0 12.0 0.02 0.15 0.15 91 1017.1
20260903181628 64 128 9.0 15.0 0.04 0.15 0.15 90 1017.2
20260903181126 64 107 9.0 15.0 0.04 0.15 0.15 90 1017.2
20260903180621 64 97 6.0 13.0 0.05 0.15 0.15 89 1017.3
20260903180125 64 165 3.0 15.0 0.03 0.13 0.13 90 1017.5
20260903175616 64 92 7.0 15.0 0.03 0.13 0.13 89 1017.8
20260903175110 64 107 4.0 9.0 0.03 0.13 0.13 89 1017.9
20260903175024 65 69 4.0 9.0 0.03 0.13 0.13 89 1018.2
20260903174511 65 77 1.0 9.0 0.02 0.12 0.12 89 1018.2
20260903173611 65 94 5.0 11.0 0.02 0.12 0.12 90 1018.3
20260903173053 65 94 2.0 11.0 0.02 0.12 0.12 88 1018.1
20260903172551 64 104 3.0 10.0 0.02 0.12 0.12 89 1018.2
20260903172045 64 130 1.0 8.0 0.04 0.12 0.12 89 1018.1
20260903171936 65 170 0.0 7.0 0.02 0.11 0.11 90 1018.4
20260903171042 65 64 2.0 10.0 0.02 0.11 0.11 89 1018.3
20260903170934 65 123 2.0 10.0 0.01 0.10 0.10 88 1018.3
20260903170032 65 275 2.0 9.0 0.01 0.10 0.10 90 1018.4
20260903165529 65 68 1.0 9.0 0.02 0.10 0.10 89 1018.3
20260903165025 65 111 6.0 10.0 0.02 0.10 0.10 90 1018.3
20260903164520 65 101 4.0 12.0 0.04 0.10 0.10 89 1018.3
20260903164016 65 115 4.0 12.0 0.05 0.10 0.10 89 1018.4
20260903163513 65 85 7.0 12.0 0.05 0.10 0.10 91 1018.5
20260903163013 65 80 5.0 13.0 0.06 0.10 0.10 91 1018.1
20260903162512 64 114 9.0 13.0 0.08 0.10 0.10 90 1018.1
20260903162414 64 78 5.0 11.0 0.06 0.09 0.09 91 1018.4
20260903161509 64 87 4.0 14.0 0.07 0.09 0.09 92 1018.2
20260903161005 64 126 2.0 14.0 0.09 0.09 0.09 91 1018.4
20260903160459 64 111 10.0 12.0 0.09 0.09 0.09 92 1018.3
20260903155955 64 67 7.0 10.0 0.09 0.09 0.09 92 1018.2
20260903155450 64 129 5.0 11.0 0.08 0.08 0.08 92 1018.0
20260903155343 64 95 6.0 11.0 0.08 0.08 0.08 91 1018.3
20260903154444 64 68 4.0 15.0 0.06 0.06 0.06 91 1018.2
20260903153942 64 88 5.0 15.0 0.05 0.05 0.05 90 1018.2
20260903153439 64 123 6.0 14.0 0.05 0.05 0.05 90 1018.0
20260903152936 64 54 4.0 14.0 0.04 0.04 0.04 89 1018.0
20260903152621 64 139 4.0 14.0 0.02 0.02 0.02 88 1018.1
20260903151427 65 49 2.0 14.0 0.01 0.01 0.01 86 1018.5
20260903150915 65 99 6.0 15.0 0.00 0.00 0.00 84 1018.5
20260903150414 66 121 4.0 15.0 0.00 0.00 0.00 83 1018.7
20260903145910 66 79 6.0 15.0 0.00 0.00 0.00 81 1018.7
20260903145403 66 76 10.0 15.0 0.00 0.00 0.00 81 1018.6
20260903144859 66 74 4.0 17.0 0.00 0.00 0.00 81 1018.7
20260903144356 66 185 6.0 17.0 0.00 0.00 0.00 81 1018.5
20260903143852 66 110 9.0 16.0 0.00 0.00 0.00 81 1018.8
20260903143524 66 148 6.0 11.0 0.00 0.00 0.00 81 1018.9
20260903142727 66 73 5.0 14.0 0.00 0.00 0.00 82 1018.9
20260903141850 66 92 6.0 17.0 0.00 0.00 0.00 82 1019.0
20260903141346 66 102 13.0 17.0 0.00 0.00 0.00 83 1018.7
20260903140845 66 112 1.0 11.0 0.00 0.00 0.00 83 1019.1
20260903140342 66 58 2.0 14.0 0.00 0.00 0.00 82 1018.8
20260903140240 66 73 5.0 14.0 0.00 0.00 0.00 81 1019.0
20260903135336 66 121 5.0 17.0 0.00 0.00 0.00 81 1019.0
20260903134833 66 77 3.0 17.0 0.00 0.00 0.00 81 1019.1
20260903134332 66 128 5.0 14.0 0.00 0.00 0.00 81 1018.8
20260903133831 66 173 2.0 12.0 0.00 0.00 0.00 82 1019.1
20260903133734 66 53 2.0 13.0 0.00 0.00 0.00 81 1019.1
20260903132826 66 47 0.0 17.0 0.00 0.00 0.00 82 1019.0
20260903132322 66 188 3.0 17.0 0.00 0.00 0.00 82 1019.0
20260903132227 66 108 1.0 11.0 0.00 0.00 0.00 82 1019.0
20260903131318 66 84 7.0 10.0 0.00 0.00 0.00 81 1019.1
20260903130819 66 120 4.0 11.0 0.00 0.00 0.00 82 1019.0
20260903130316 66 85 2.0 12.0 0.00 0.00 0.00 83 1019.0
20260903125816 66 138 5.0 13.0 0.00 0.00 0.00 83 1018.9
20260903125314 66 102 5.0 15.0 0.00 0.00 0.00 84 1018.7
20260903124809 65 127 5.0 15.0 0.00 0.00 0.00 84 1018.8
20260903124306 65 82 7.0 12.0 0.00 0.00 0.00 84 1018.9
20260903123808 65 81 4.0 11.0 0.00 0.00 0.00 85 1019.0
20260903123302 65 83 0.0 11.0 0.00 0.00 0.00 85 1019.2
20260903122757 65 119 4.0 13.0 0.00 0.00 0.00 85 1018.9
20260903122250 65 84 7.0 13.0 0.00 0.00 0.00 86 1019.3
20260903121751 65 115 3.0 13.0 0.00 0.00 0.00 86 1019.3
20260903121251 65 146 3.0 13.0 0.00 0.00 0.00 87 1019.2
20260903120749 65 96 5.0 10.0 0.00 0.00 0.00 87 1019.2
20260903120242 65 109 2.0 10.0 0.00 0.00 0.00 89 1019.4
20260903115740 64 96 4.0 12.0 0.00 0.00 0.00 90 1019.3
20260903115250 63 119 5.0 12.0 0.00 0.00 0.00 92 1019.4
20260903114738 63 37 2.0 9.0 0.00 0.00 0.00 93 1019.3
20260903114235 62 93 3.0 9.0 0.00 0.00 0.00 94 1019.6
20260903113755 62 52 0.0 7.0 0.00 0.00 0.00 95 1019.5
20260903113302 61 90 3.0 7.0 0.00 0.00 0.00 97 1019.4
20260903111729 60 50 2.0 7.0 0.00 0.00 0.00 98 1019.6
20260903111227 60 39 4.0 5.0 0.00 0.00 0.00 98 1019.5
20260903110728 59 48 5.0 6.0 0.00 0.00 0.00 99 1019.5
20260903110219 59 27 3.0 6.0 0.00 0.00 0.00 99 1019.4
20260903105854 59 46 5.0 6.0 0.00 0.00 0.00 99 1019.3
20260903104717 58 14 1.0 5.0 0.00 0.00 0.00 99 1019.6
20260903104216 58 35 2.0 5.0 0.00 0.00 0.00 99 1019.5
20260903103713 57 53 4.0 5.0 0.00 0.00 0.00 99 1019.5
20260903103215 57 43 0.0 4.0 0.00 0.00 0.00 99 1019.6
20260903102708 56 59 1.0 4.0 0.00 0.00 0.00 98 1019.8
20260903102646 56 10 1.0 4.0 0.00 0.00 0.00 98 1019.6
20260903102153 56 38 2.0 4.0 0.00 0.00 0.00 98 1019.6
20260903101156 56 48 2.0 2.0 0.00 0.00 0.00 98 1019.5
20260903100655 56 53 1.0 3.0 0.00 0.00 0.00 98 1019.7
20260903100153 56 129 0.0 3.0 0.00 0.00 0.00 98 1019.7
20260903095652 56 40 2.0 2.0 0.00 0.00 0.00 98 1019.7
20260903095150 56 31 2.0 5.0 0.00 0.00 0.00 98 1019.5
20260903094650 56 310 0.0 6.0 0.00 0.00 0.00 98 1019.6
20260903094321 56 47 2.0 6.0 0.00 0.00 0.00 98 1019.7
20260903093334 56 53 4.0 4.0 0.00 0.00 0.00 98 1019.6
20260903092148 56 51 3.0 3.0 0.00 0.00 0.00 98 1019.8
20260903091649 56 109 2.0 3.0 0.00 0.00 0.00 98 1019.9
20260903091547 56 0 0.0 3.0 0.00 0.00 0.00 98 1019.9
20260903090646 56 315 1.0 3.0 0.00 0.00 0.00 98 1020.0
20260903090155 56 322 1.0 2.0 0.00 0.00 0.00 97 1020.1
20260903085640 56 313 0.0 2.0 0.00 0.00 0.00 98 1020.0
20260903085541 56 308 0.0 2.0 0.00 0.00 0.00 97 1020.1
20260903084650 56 317 1.0 2.0 0.00 0.00 0.00 98 1020.1
20260903084136 56 8 1.0 2.0 0.00 0.00 0.00 98 1020.3
20260903083634 56 32 2.0 2.0 0.00 0.00 0.00 97 1020.2
20260903083131 56 19 0.0 2.0 0.00 0.00 0.00 97 1020.3
20260903082631 56 318 0.0 3.0 0.00 0.00 0.00 97 1020.2
20260903082131 57 329 2.0 3.0 0.00 0.00 0.00 97 1020.3
20260903081628 57 30 2.0 3.0 0.00 0.00 0.00 98 1020.2
20260903081128 57 37 2.0 3.0 0.00 0.00 0.00 97 1020.4
20260903081014 56 48 1.0 2.0 0.00 0.00 0.00 97 1020.4
20260903080123 57 291 1.0 2.0 0.00 0.00 0.00 97 1020.6
20260903075634 57 302 0.0 2.0 0.00 0.00 0.00 97 1020.4
20260903075121 57 38 2.0 2.0 0.00 0.00 0.00 97 1020.4
20260903075010 57 261 0.0 2.0 0.00 0.00 0.00 97 1020.5
20260903074119 57 129 0.0 1.0 0.00 0.00 0.00 97 1020.4
20260903073628 57 110 0.0 2.0 0.00 0.00 0.00 97 1020.4
20260903073115 57 348 0.0 2.0 0.00 0.00 0.00 97 1020.8
20260903072614 57 290 1.0 2.0 0.00 0.00 0.00 97 1020.7
20260903072113 57 325 1.0 2.0 0.00 0.00 0.00 97 1020.7
20260903071613 57 306 0.0 2.0 0.00 0.00 0.00 97 1020.7
20260903071114 57 314 2.0 2.0 0.00 0.00 0.00 97 1020.8
20260903070958 57 296 0.0 2.0 0.00 0.00 0.00 97 1020.5
20260903070116 57 0 0.0 2.0 0.00 0.00 0.00 97 1020.7
20260903065611 57 320 0.0 2.0 0.00 0.00 0.00 97 1020.9
20260903065111 57 330 1.0 2.0 0.00 0.00 0.00 97 1020.9
20260903064606 57 19 0.0 2.0 0.00 0.00 0.00 97 1020.8
20260903064104 57 35 1.0 2.0 0.00 0.00 0.00 97 1020.9
20260903063617 57 1 1.0 2.0 0.00 0.00 0.00 97 1021.0
20260903063102 57 199 0.0 2.0 0.00 0.00 0.00 97 1021.0
20260903062559 57 154 0.0 2.0 0.00 0.00 0.00 97 1021.0
20260903062100 57 290 0.0 2.0 0.00 0.00 0.00 97 1020.7
20260903061550 57 178 0.0 2.0 0.00 0.00 0.00 97 1020.9
20260903061047 57 285 2.0 2.0 0.00 0.00 0.00 97 1020.6
20260903060547 57 28 2.0 2.0 0.00 0.00 0.00 97 1020.5
20260903060101 57 41 1.0 2.0 0.00 0.00 0.00 97 1020.8
20260903055545 57 270 1.0 2.0 0.00 0.00 0.00 97 1020.7
20260903055048 57 73 0.0 3.0 0.00 0.00 0.00 97 1020.6
20260903054545 57 310 2.0 3.0 0.00 0.00 0.00 97 1020.6
20260903054044 57 359 0.0 2.0 0.00 0.00 0.00 97 1020.6
20260903053543 57 343 1.0 2.0 0.00 0.00 0.00 96 1020.7
20260903053215 57 308 0.0 2.0 0.00 0.00 0.00 96 1020.7
20260903052043 58 110 0.0 2.0 0.00 0.00 0.00 96 1020.5
20260903051543 58 346 0.0 2.0 0.00 0.00 0.00 96 1020.8
20260903051502 58 346 0.0 2.0 0.00 0.00 0.00 96 1020.7
20260903050533 58 309 2.0 3.0 0.00 0.00 0.00 96 1020.8
20260903050029 58 34 0.0 3.0 0.00 0.00 0.00 96 1020.8
20260903045528 58 25 0.0 2.0 0.00 0.00 0.00 96 1020.7
20260903045027 58 4 1.0 2.0 0.00 0.00 0.00 96 1020.7
20260903044540 58 43 1.0 2.0 0.00 0.00 0.00 96 1020.7
20260903044024 58 44 2.0 2.0 0.00 0.00 0.00 95 1020.7
20260903043538 59 37 0.0 2.0 0.00 0.00 0.00 95 1020.8
20260903043036 59 30 1.0 2.0 0.00 0.00 0.00 95 1021.0
20260903042520 59 352 0.0 2.0 0.00 0.00 0.00 94 1020.9
20260903042015 59 18 1.0 2.0 0.00 0.00 0.00 94 1020.8
20260903041529 60 38 0.0 2.0 0.00 0.00 0.00 94 1021.0
20260903041012 60 25 0.0 1.0 0.00 0.00 0.00 93 1021.1
20260903040513 60 244 0.0 1.0 0.00 0.00 0.00 93 1021.0
20260903040004 60 19 0.0 1.0 0.00 0.00 0.00 93 1021.1
20260903035658 60 90 0.0 3.0 0.00 0.00 0.00 93 1021.0
20260903034457 60 324 2.0 2.0 0.00 0.00 0.00 94 1021.1
20260903033955 60 332 2.0 2.0 0.00 0.00 0.00 94 1021.1
20260903033456 60 29 1.0 2.0 0.00 0.00 0.00 94 1021.1
20260903032956 60 55 2.0 2.0 0.00 0.00 0.00 93 1021.3
20260903032449 60 46 2.0 2.0 0.00 0.00 0.00 93 1021.1
20260903031946 61 52 0.0 2.0 0.00 0.00 0.00 93 1021.0
20260903031433 61 253 0.0 2.0 0.00 0.00 0.00 93 1021.2
20260903030932 61 12 0.0 2.0 0.00 0.00 0.00 92 1020.9
20260903030426 61 332 0.0 2.0 0.00 0.00 0.00 92 1021.0
20260903030336 61 32 2.0 2.0 0.00 0.00 0.00 91 1020.9
20260903025424 61 317 0.0 3.0 0.00 0.00 0.00 91 1020.7
20260903024924 61 46 1.0 3.0 0.00 0.00 0.00 90 1021.0
20260903024422 61 328 0.0 2.0 0.00 0.00 0.00 91 1020.9
20260903023920 61 277 2.0 2.0 0.00 0.00 0.00 91 1021.0
20260903023421 62 341 0.0 3.0 0.00 0.00 0.00 91 1021.1
20260903022915 62 316 0.0 3.0 0.00 0.00 0.00 91 1020.9
20260903022831 62 308 2.0 2.0 0.00 0.00 0.00 91 1020.8
20260903021912 62 350 0.0 3.0 0.00 0.00 0.00 91 1020.7
20260903021409 61 48 2.0 3.0 0.00 0.00 0.00 91 1020.8
20260903020905 61 308 0.0 3.0 0.00 0.00 0.00 91 1020.8
20260903020401 61 177 0.0 2.0 0.00 0.00 0.00 91 1020.7
20260903015852 61 327 0.0 2.0 0.00 0.00 0.00 90 1020.6
20260903015345 62 66 0.0 2.0 0.00 0.00 0.00 90 1020.7
20260903014921 62 281 0.0 3.0 0.00 0.00 0.00 89 1020.7
20260903014848 62 15 0.0 2.0 0.00 0.00 0.00 90 1021.0
20260903014354 62 13 0.0 3.0 0.00 0.00 0.00 89 1020.7
20260903012321 62 352 1.0 4.0 0.00 0.00 0.00 88 1020.6
20260903011817 62 348 0.0 3.0 0.00 0.00 0.00 88 1020.9
20260903011318 62 64 1.0 3.0 0.00 0.00 0.00 88 1020.9
20260903010813 62 308 0.0 3.0 0.00 0.00 0.00 87 1020.8
20260903010301 62 308 0.0 3.0 0.00 0.00 0.00 87 1020.8
20260903005804 62 258 0.0 4.0 0.00 0.00 0.00 87 1020.9
20260903005252 61 354 0.0 4.0 0.00 0.00 0.00 87 1020.8
20260903005220 61 305 3.0 4.0 0.00 0.00 0.00 88 1021.0
20260903004246 61 311 3.0 4.0 0.00 0.00 0.00 88 1020.9
20260903003744 61 317 3.0 4.0 0.00 0.00 0.00 89 1020.7
20260903003239 61 329 0.0 3.0 0.00 0.00 0.00 89 1020.9
20260903002736 61 314 2.0 4.0 0.00 0.00 0.00 89 1020.9
20260903002240 61 308 3.0 4.0 0.00 0.00 0.00 90 1020.9
20260903002133 61 317 2.0 3.0 0.00 0.00 0.00 90 1020.9
20260903001228 61 306 1.0 2.0 0.00 0.00 0.00 90 1021.0
20260903000723 61 286 1.0 2.0 0.00 0.00 0.00 90 1021.1
20260903000226 61 229 2.0 2.0 0.00 0.00 0.00 90 1020.9
20260902235714 61 25 0.0 2.0 0.00 0.00 0.00 89 1021.1
20260902235226 61 43 1.0 2.0 0.00 0.00 0.00 89 1020.8
20260902234710 61 347 0.0 3.0 0.00 0.00 0.00 89 1021.0
20260902234209 61 350 1.0 3.0 0.00 0.00 0.00 89 1021.0
20260902233904 62 32 1.0 2.0 0.00 0.00 0.00 87 1020.9
20260902233747 62 30 0.0 2.0 0.00 0.00 0.00 88 1020.9
20260902232152 63 22 0.0 2.0 0.00 0.00 0.00 86 1021.0
20260902231650 63 13 0.0 2.0 0.00 0.00 0.00 85 1021.0
20260902231138 63 0 0.0 2.0 0.00 0.00 0.00 83 1021.1
20260902230649 64 30 0.0 2.0 0.00 0.00 0.00 83 1021.1
20260902230150 64 64 0.0 2.0 0.00 0.00 0.00 82 1020.9
20260902225631 65 56 1.0 2.0 0.00 0.00 0.00 81 1020.9
20260902225134 65 295 0.0 2.0 0.00 0.00 0.00 81 1020.9
20260902224650 65 19 0.0 1.0 0.00 0.00 0.00 77 1020.8
20260902224628 65 19 0.0 1.0 0.00 0.00 0.00 78 1020.9
20260902223618 66 25 0.0 1.0 0.00 0.00 0.00 76 1020.9
20260902223117 67 272 0.0 0.0 0.00 0.00 0.00 74 1021.0
20260902223009 67 272 0.0 1.0 0.00 0.00 0.00 72 1020.9
20260902222110 68 308 0.0 2.0 0.00 0.00 0.00 71 1020.8
20260902221609 68 323 0.0 2.0 0.00 0.00 0.00 69 1020.9
20260902221110 68 19 0.0 2.0 0.00 0.00 0.00 67 1020.7
20260902220600 69 0 0.0 2.0 0.00 0.00 0.00 66 1020.7
20260902220108 69 25 1.0 3.0 0.00 0.00 0.00 65 1020.8
20260902215554 69 25 1.0 5.0 0.00 0.00 0.00 64 1020.8
20260902215052 69 55 3.0 5.0 0.00 0.00 0.00 63 1020.5
20260902214551 70 40 1.0 5.0 0.00 0.00 0.00 63 1020.6
20260902214525 71 36 2.0 6.0 0.00 0.00 0.00 61 1020.8
20260902213549 71 250 1.0 6.0 0.00 0.00 0.00 60 1020.8
20260902213047 71 26 3.0 5.0 0.00 0.00 0.00 60 1020.8
20260902212543 71 34 2.0 6.0 0.00 0.00 0.00 60 1021.0
20260902212035 72 52 2.0 6.0 0.00 0.00 0.00 58 1020.8
20260902211531 72 34 3.0 6.0 0.00 0.00 0.00 58 1020.8
20260902211043 72 12 5.0 6.0 0.00 0.00 0.00 57 1020.9
20260902210527 73 14 4.0 7.0 0.00 0.00 0.00 57 1020.9
20260902210025 72 62 4.0 9.0 0.00 0.00 0.00 57 1021.0
20260902205523 73 11 3.0 9.0 0.00 0.00 0.00 58 1021.0
20260902205014 73 48 3.0 7.0 0.00 0.00 0.00 56 1021.0
20260902204513 73 59 4.0 8.0 0.00 0.00 0.00 56 1021.1
20260902204012 73 41 4.0 8.0 0.00 0.00 0.00 55 1021.0
20260902203512 73 138 2.0 9.0 0.00 0.00 0.00 57 1021.1
20260902203436 73 57 3.0 9.0 0.00 0.00 0.00 56 1021.0
20260902202502 74 11 1.0 6.0 0.00 0.00 0.00 54 1021.2
20260902201958 75 30 3.0 6.0 0.00 0.00 0.00 54 1021.0
20260902201531 74 13 1.0 6.0 0.00 0.00 0.00 54 1021.2
20260902200946 74 343 2.0 6.0 0.00 0.00 0.00 55 1021.1
20260902200444 74 96 2.0 6.0 0.00 0.00 0.00 55 1021.1
20260902195945 75 355 2.0 6.0 0.00 0.00 0.00 54 1021.3
20260902195445 75 62 6.0 6.0 0.00 0.00 0.00 53 1021.2
20260902194944 74 46 2.0 4.0 0.00 0.00 0.00 55 1021.3
20260902194441 74 4 1.0 3.0 0.00 0.00 0.00 55 1021.5
20260902193934 74 38 1.0 5.0 0.00 0.00 0.00 54 1021.4
20260902193434 74 308 2.0 7.0 0.00 0.00 0.00 55 1021.6